Miscellaneous Local Product
Issued by NWS North Platte, NE

Home | Current Version | Previous Version | Text Only | Print | Product List | Glossary On
Versions: 1 2 3 4 5 6 7 8 9 10 11 12 13 14 15 16 17 18 19 20 21 22 23 24 25 26 27 28 29 30 31 32 33 34 35 36 37 38 39 40 41 42 43 44 45 46 47 48 49 50
000
AXUS43 KLBF 252110
MISLBF


WESTERN AND NORTH CENTRAL NEBRASKA HOURLY WEATHER ROUNDUP
NATIONAL WEATHER SERVICE NORTH PLATTE NE
400 PM CDT TUE APR 25 2017

NOTE: "FAIR" INDICATES FEW OR NO CLOUDS BELOW 12,000 FEET WITH NO
SIGNIFICANT WEATHER AND/OR OBSTRUCTIONS TO VISIBILITY.

NOTE: STATIONS NOT REPORTING VARIABLES SUCH AS SKY/WEATHER OR
PRESSURE ARE PROVIDED BY RAWS AND APRS NETWORKS AND ARE NOT UNDER
NATIONAL WEATHER SERVICE QUALITY CONTROL.

...OBSERVATIONS IN AND NEAR THE EASTERN PANHANDLE OF NEBRASKA...

CITY           SKY/WX    TMP DP  RH WIND       PRES   REMARKS
PINE RIDGE     CLOUDY    36  30  79 N17       29.74R WCI  26
CHADRON        LGT SNOW  35  30  82 NE17G24   29.75R WCI  25
ALLIANCE       CLOUDY    39  33  79 NE18      29.66R WCI  30
SIDNEY         MOSUNNY   51  42  71 NE22G31   29.59R
CRESCENT LAKE    N/A     41  34  77 NE14        N/A
$$

...OBSERVATIONS IN NORTHERN NEBRASKA AND FAR SOUTHERN SOUTH DAKOTA...

CITY           SKY/WX    TMP DP  RH WIND       PRES   REMARKS
WINNER         LGT RAIN  37  33  85 N15       29.73R WCI  28
VALENTINE      CLOUDY    37  30  75 N17       29.72R WCI  27
THEDFORD       CLOUDY    39  36  89 N15G22    29.67R WCI  31
AINSWORTH      CLOUDY    35  34  96 N21G29    29.69R WCI  23
O`NEILL        CLOUDY    39  35  85 N20       29.65S WCI  29
ORD            CLOUDY    39  35  86 N18G25    29.63R WCI  30
BROKEN BOW     CLOUDY    40  37  89 N20       29.64R WCI  30
VALENTINE NWR    N/A     36  32  86 N15G23      N/A  WCI  27
HALSEY           N/A     38  35  89 N10G20      N/A  WCI  31
BUTTE            N/A     37  33  86 N15G24      N/A  WCI  28
CHAMBERS         N/A     38  35  89 N5G12       N/A  WCI  34
EWING            N/A     39  37  91 N13G20      N/A  WCI  31
$$

...OBSERVATIONS IN SOUTHWEST NEBRASKA AND FAR NORTHEAST COLORADO...

CITY           SKY/WX    TMP DP  RH WIND       PRES   REMARKS
HOLYOKE        FAIR      59  45  58 NE15G21   29.58R
IMPERIAL       PTSUNNY   53  43  68 NE10      29.59R
OGALLALA       CLOUDY    53  42  65 NE15      29.61R
NORTH PLATTE   CLOUDY    46  39  76 N12G22    29.63R
MCCOOK         CLOUDY    52  43  71 N10       29.59S
LEXINGTON      CLOUDY    45  40  81 N15G21    29.62R
STAPLETON        N/A     40  36  86 N3          N/A
GOTHENBURG       N/A     45  37  75 N9          N/A
CALLAWAY         N/A     42  39  90 N12         N/A
$$

...OBSERVATIONS IN CENTRAL LINCOLN COUNTY AREA...

CITY           SKY/WX    TMP DP  RH WIND       PRES   REMARKS
N.P. AIRPORT   CLOUDY    46  39  76 N12G22    29.63R
N.P. DOWNTOWN    N/A     46  40  79 N10G17      N/A
N.P. HILLCREST   N/A     45  39  79 NE20G26     N/A
$$

...SOME OBSERVATIONS FROM AROUND THE REGION...

CITY           SKY/WX    TMP DP  RH WIND       PRES   REMARKS
DENVER         PTSUNNY   54  27  35 NE9G20    29.59R THUNDER
LIMON          LGT RAIN  45  40  82 SW7       29.61R
ASPEN          CLOUDY    39  27  62 W6        29.69R WCI  35
LARAMIE        LGT SNOW  32  28  85 NW21G30   29.69R FOG     WCI  20
CASPER         LGT SNOW  30  26  85 N17       29.80R FOG     WCI  18
CHEYENNE       CLOUDY    47  30  51 NW24G31   29.63R
SCOTTSBLUFF    CLOUDY    42  35  76 NE17      29.67R
GRAND ISLAND   CLOUDY    42  39  89 N17       29.61R
OMAHA          CLOUDY    51  43  74 N16G25    29.51R
SIOUX FALLS    LGT RAIN  42  42 100 N13       29.61S
PIERRE         CLOUDY    35  28  75 N21G28    29.77S WCI  24
RAPID CITY     LGT SNOW  29  26  89 N18       29.81R VSB 3/4 WCI  16
BISMARCK       CLOUDY    34  25  69 N16       29.89R WCI  24
KANSAS CITY    CLOUDY    71  57  61 SW7       29.41S
HILL CITY      CLOUDY    58  44  60 N16       29.56R
WICHITA        CLOUDY    68  56  65 N13       29.43R
DODGE CITY     CLOUDY    57  46  66 N13       29.52S
OKLAHOMA CITY  CLOUDY    80  61  52 S20G26    29.38R
DALLAS         PTSUNNY   84  67  56 S21G33    29.44F
AMARILLO       CLOUDY    73  39  29 W14       29.49F
$$




USA.gov is the U.S. government's official web portal to all federal, state and local government web resources and services.